User: anonymous   Login
Location: Unspecified
(0.0000°N, 0.0000°E)
Time: 07:45:03
(UTC+02:00)
Language:

Sapphire - Orbit

View from above orbital plane
View from above orbital plane
View from above satellite
View from above satellite

Ground track
Ground track

The orbit data is extracted from the following two-line orbital elements,

1 26932U 01043D   16208.48559114 -.00000055  00000-0  10938-4 0  9990
2 26932  67.0541 213.4047 0007248 248.2449 111.7881 14.30218334773791
Epoch (UTC): 26 July 2016 11:39:15
Eccentricity: 0.0007248
inclination: 67.0541°
perigee height: 786 km
apogee height: 796 km
right ascension of ascending node: 213.4047°
argument of perigee: 248.2449°
revolutions per day: 14.30218334
mean anomaly at epoch: 111.7881°
orbit number at epoch: 77379

The dashed part of the orbit path shows where the satellite is in the earth's shadow,  

DLR